DELTA 1 DEB, 3126

Orbit data source: Space-Track

DELTA 1 DEB, 3126 is space debris in LEO originally from a launch on Thu, 11 Jan 1968 UTC launched from the Air Force Western Test Range (AFWTR). Debris objects in space refer to the collection of defunct objects orbiting the Earth. Examples of debris include non-operational satellites, rocket bodies, and fragments generated from explosions, collisions, or faulty payload assembly.

Loading next visibility...
Identifier
3126, 1968-002C
Orbit
LEO
Country
Flag of USUS
Related business
Manufacturer
Unknown
Mission
Spacecraft
Bus & Motor
Unknown
Mass
Unknown
Launch date (UTC)
1968-01-11 (58 years ago)
Launch vehicle
Unknown
Launch site
Air Force Western Test Range (AFWTR)
Object type
Payload
Rocket body
Debris
Shape & HBR
Unknown
Radar Cross Section
Small (<0.1 m²)

Expand to show TLE details & history
Last TLE update: 2 days ago

TLE from 2 days ago
0 DELTA 1 DEB
1 03126U 68002C   25259.31813395 -.00000049  00000-0  99952-4 0  9996
2 03126 106.0771  88.4614 0322400 235.7156 302.4185 12.82450379699173
Epoch: 2025-09-16T07:38Z
TLE epoch observation values (Epoch: 2025-09-16T07:38:06.773Z)
Latitude
4.77747°
Longitude
159.79622°
Altitude
1,206.148 km
Speed
7.311 km/s
True Right ascension
17h 59m 20s
True Declination
4° 45' 02"
Sunlit
Object was in daylight at epoch
Visualization orbit readout
Latitude
Unknown
Longitude
Unknown
Altitude
Unknown
Speed
Unknown
Apparent Right ascension
Unknown
Apparent Declination
Unknown
Sunlit
N/A
Visualization observer readout
Local Sidereal Time
02:26:53
Azimuth
Unknown
Elevation
Unknown
Doppler factor
Unknown
Orbital elements
Apogee altitude
1,577.929 km
Perigee altitude
1,080.944 km
Semi-major axis
7,707.573 km
Eccentricity
0.03224
Inclination
106.0771°
RAAN
88.4614°
Arg. of periapsis
235.7156°
True anomaly
299.23267°
Mean anomaly
302.4185°
Eccentric anomaly
300.83235°
Mean motion
3.2075 °/min
Orbital period
112.24 mins
BSTAR
0.000099952
Loading maneuver chart data...
Computing Atmospheric mass density...
Loading historical data...
Loading historical data...
Loading historical data...
Loading historical data...
Loading historical data...
Loading historical data...
Loading historical data...

Documentation

Showing up to 5 results
|